Location: Ermatingen
(47.6706°N, 9.0857°E)
Time: 05:49:14
(UTC+00:00)

Tsikada Rocket - Pass Details

Date: 18 September 2020
Orbit: 958 x 1009 km, 82.9° (Epoch: 22 October)

Event Time Altitude Azimuth Distance (km) Brightness Sun altitude
Rises 17:54:00 0° 349° (N) 3,656 7.3 -5.0°
Reaches altitude 10° 17:56:30 10° 349° (NNW) 2,703 6.6 -5.4°
Maximum altitude 18:02:40 77° 265° (W) 986 4.2 -6.5°
Drops below altitude 10° 18:08:48 10° 179° (S) 2,687 6.2 -7.5°
Sets 18:11:17 0° 178° (S) 3,633 6.9 -7.9°
